DW6061 Weather Reports


time (UTC)temp
F
wind
direction
speed
knots
gust
knots
rain 1hr
in
rain 24hr
in
rain mn
in
humidity
%
barometer
mb
20260507065011 52 327 0.0 0.9 0.00 0.00 0.00 93 1017.3
20260507063952 52 151 0.0 0.9 0.00 0.00 0.00 93 1017.3
20260507062952 52 275 0.0 1.7 0.00 0.00 0.00 93 1017.2
20260507061951 52 0.0 0.9 0.00 0.00 0.00 92 1017.3
20260507060952 52 50 0.0 0.9 0.00 0.00 0.00 92 1017.4
20260507055952 52 172 0.0 1.7 0.00 0.00 0.00 92 1017.3
20260507054952 52 2 0.0 1.7 0.00 0.00 0.00 91 1017.2
20260507053952 53 323 0.0 0.9 0.00 0.00 0.00 91 1017.3
20260507052951 53 294 0.0 1.7 0.00 0.00 0.00 91 1017.4
20260507051952 53 295 0.0 1.7 0.00 0.00 0.00 90 1017.4
20260507050952 53 326 0.0 1.7 0.00 0.00 0.00 90 1017.4
20260507045952 53 266 0.0 3.5 0.00 0.00 0.00 90 1017.4
20260507044952 54 291 0.9 2.6 0.00 0.00 0.00 89 1017.4
20260507043952 54 290 0.9 1.7 0.00 0.00 0.00 89 1017.3
20260507042951 54 328 0.9 2.6 0.00 0.00 0.00 89 1017.2
20260507041952 54 308 0.9 4.3 0.00 0.00 0.00 88 1017.1
20260507040952 55 286 1.7 4.3 0.00 0.00 0.00 88 1016.9
20260507035952 55 283 0.9 3.5 0.00 0.00 0.00 87 1016.8
20260507034951 55 266 0.9 2.6 0.00 0.00 0.00 86 1016.9
20260507033951 56 261 0.0 2.6 0.00 0.00 0.00 86 1016.7
20260507032951 56 312 0.9 4.3 0.00 0.00 0.00 85 1016.7
20260507032012 57 279 0.9 2.6 0.00 0.00 0.00 84 1016.7
20260507030952 58 253 0.9 2.6 0.00 0.00 0.00 83 1016.5
20260507025951 58 294 0.9 3.5 0.00 0.00 0.00 81 1016.4
20260507025013 59 285 0.9 2.6 0.00 0.00 0.00 80 1016.2
20260507023952 60 272 0.9 3.5 0.00 0.00 0.00 78 1016.1
20260507023012 62 297 0.9 2.6 0.00 0.00 0.00 77 1016.1
20260507021951 63 261 0.9 2.6 0.00 0.00 0.00 75 1016.0
20260507020952 64 218 0.9 3.5 0.00 0.00 0.00 74 1016.0
20260507015952 65 250 0.9 5.2 0.00 0.00 0.00 72 1015.9
20260507014952 66 253 0.9 5.2 0.00 0.00 0.00 71 1015.9
20260507013951 67 265 0.9 4.3 0.00 0.00 0.00 70 1015.9
20260507012954 67 285 1.7 3.5 0.00 0.00 0.00 68 1015.9
20260507012014 68 298 1.7 4.3 0.00 0.00 0.00 68 1015.9
20260507011014 69 183 0.9 7.0 0.00 0.00 0.00 67 1015.9
20260507005954 69 276 1.7 4.3 0.00 0.00 0.00 65 1015.8
20260507004953 70 174 0.9 4.3 0.00 0.00 0.00 64 1015.7
20260507003953 71 333 1.7 5.2 0.00 0.00 0.00 62 1015.6
20260507002954 73 264 0.9 6.1 0.00 0.00 0.00 61 1015.6
20260507002014 74 293 0.9 5.2 0.00 0.00 0.00 59 1015.5
20260507000954 75 267 0.9 5.2 0.00 0.00 0.00 59 1015.6
20260506235955 75 229 0.9 6.1 0.00 0.00 0.00 58 1015.4
20260506234955 76 224 0.9 4.3 0.00 0.00 0.00 57 1015.4
20260506233954 76 226 0.9 6.1 0.00 0.00 0.00 56 1015.5
20260506232954 77 295 1.7 4.3 0.00 0.00 0.00 55 1015.6
20260506232012 77 37 0.9 2.6 0.00 0.00 0.00 55 1015.5
20260506230955 78 186 0.9 3.5 0.00 0.00 0.00 54 1015.6
20260506225954 79 241 1.7 6.1 0.00 0.00 0.00 53 1015.7
20260506224954 79 153 0.9 3.5 0.00 0.00 0.00 54 1015.7
20260506223955 77 207 0.9 3.5 0.00 0.00 0.00 55 1015.8
20260506222954 77 167 2.6 7.0 0.00 0.00 0.00 54 1015.9
20260506221954 76 175 1.7 7.0 0.00 0.00 0.00 54 1015.9
20260506221014 77 161 2.6 7.0 0.00 0.00 0.00 55 1015.9
20260506215953 76 156 3.5 9.6 0.00 0.00 0.00 54 1016.1
20260506214954 77 177 2.6 6.1 0.00 0.00 0.00 55 1016.2
20260506213954 75 141 3.5 7.8 0.00 0.00 0.00 56 1016.4
20260506212954 75 173 2.6 6.1 0.00 0.00 0.00 55 1016.5
20260506211954 76 142 2.6 7.0 0.00 0.00 0.00 54 1016.6
20260506211015 76 162 1.7 6.1 0.00 0.00 0.00 55 1016.6
20260506205954 77 151 2.6 6.1 0.00 0.00 0.00 54 1016.7
20260506204954 74 149 2.6 8.7 0.00 0.00 0.00 55 1016.7
20260506203952 76 155 2.6 5.2 0.00 0.00 0.00 57 1016.8
20260506202954 74 142 3.5 8.7 0.00 0.00 0.00 57 1017.0
20260506201954 74 165 3.5 7.0 0.00 0.00 0.00 57 1017.2
20260506200954 75 152 0.9 2.6 0.00 0.00 0.00 58 1017.2
20260506195954 74 218 0.9 2.6 0.00 0.00 0.00 59 1017.3
20260506194954 76 192 0.9 2.6 0.00 0.00 0.00 55 1017.4
20260506193955 75 206 0.9 2.6 0.00 0.00 0.00 57 1017.4
20260506192954 74 212 0.9 2.6 0.00 0.00 0.00 59 1017.5
20260506191952 71 231 0.0 1.7 0.00 0.00 0.00 59 1017.6
20260506190954 71 228 0.9 3.5 0.00 0.00 0.00 62 1017.7
20260506185955 70 224 0.9 4.3 0.00 0.00 0.00 62 1017.7
20260506184954 71 216 1.7 2.6 0.00 0.00 0.00 60 1017.7
20260506183954 70 155 1.7 3.5 0.00 0.00 0.00 62 1017.8
20260506182954 71 0.0 0.0 0.00 0.00 0.00 61 1017.9
20260506181954 69 0.0 0.0 0.00 0.00 0.00 63 1017.9
20260506180954 69 0.0 0.0 0.00 0.00 0.00 65 1018.0
20260506175952 68 0.0 0.0 0.00 0.00 0.00 66 1018.0
20260506174954 67 0.0 0.0 0.00 0.00 0.00 70 1018.0
20260506173954 64 0.0 0.0 0.00 0.00 0.00 73 1018.0
20260506172954 64 0.0 0.0 0.00 0.00 0.00 71 1018.0
20260506172014 64 0.0 0.0 0.00 0.00 0.00 72 1018.1
20260506170954 64 0.0 0.0 0.00 0.00 0.00 74 1018.1
20260506165954 63 0.0 0.0 0.00 0.00 0.00 74 1018.1
20260506164954 61 0.0 0.0 0.00 0.00 0.00 76 1018.2
20260506162954 60 0.0 0.0 0.00 0.00 0.00 77 1018.3
20260506162035 59 0.0 0.0 0.00 0.00 0.00 81 1018.2
20260506160954 58 0.0 0.0 0.00 0.00 0.00 82 1018.3
20260506155954 57 0.0 0.0 0.00 0.00 0.00 84 1018.3
20260506154954 56 0.0 0.0 0.00 0.00 0.00 85 1018.3
20260506153954 56 0.0 0.0 0.00 0.00 0.00 85 1018.3
20260506152954 56 0.0 0.0 0.00 0.00 0.00 85 1018.3
20260506151953 55 0.0 0.0 0.00 0.00 0.00 86 1018.2
20260506150954 55 0.0 0.0 0.00 0.00 0.00 87 1018.3
20260506150034 54 0.0 0.0 0.00 0.00 0.00 88 1018.3
20260506144954 54 0.0 0.0 0.00 0.00 0.00 89 1018.3
20260506143954 54 0.0 0.0 0.00 0.00 0.00 90 1018.4
20260506142954 53 0.0 0.0 0.00 0.00 0.00 91 1018.4
20260506141954 53 0.0 0.0 0.00 0.00 0.00 91 1018.3
20260506140954 52 0.0 0.0 0.00 0.00 0.00 92 1018.2
20260506140013 52 0.0 0.0 0.00 0.00 0.00 93 1018.1
20260506134954 51 0.0 0.0 0.00 0.00 0.00 93 1017.9
20260506133955 51 0.0 0.0 0.00 0.00 0.00 93 1017.8
20260506132954 51 0.0 0.0 0.00 0.00 0.00 93 1017.6
20260506131954 51 0.0 0.0 0.00 0.00 0.00 92 1017.6
20260506130952 51 0.0 0.0 0.00 0.00 0.00 92 1017.5
20260506125954 51 0.0 0.0 0.00 0.00 0.00 92 1017.4
20260506124954 51 0.0 0.0 0.00 0.00 0.00 92 1017.4
20260506124013 51 0.0 0.0 0.00 0.00 0.00 92 1017.3
20260506123014 52 0.0 0.0 0.00 0.00 0.00 92 1017.3
20260506121955 52 0.0 0.0 0.00 0.00 0.00 91 1017.2
20260506120954 52 0.0 0.0 0.00 0.00 0.00 91 1017.1
20260506115954 52 0.0 0.0 0.00 0.00 0.00 91 1017.0
20260506114952 52 0.0 0.0 0.00 0.00 0.00 91 1017.0
20260506113954 52 0.0 0.0 0.00 0.00 0.00 91 1017.1
20260506112954 52 0.0 0.0 0.00 0.00 0.00 91 1017.1
20260506111953 52 0.0 0.0 0.00 0.00 0.00 91 1017.0
20260506110955 52 0.0 0.0 0.00 0.00 0.00 91 1016.9
20260506105954 52 0.0 0.0 0.00 0.00 0.00 91 1016.9
20260506104954 52 0.0 0.0 0.00 0.00 0.00 91 1016.8
20260506103954 52 0.0 0.0 0.00 0.00 0.00 91 1016.8
20260506103014 52 0.0 0.0 0.00 0.00 0.00 91 1016.8
20260506101954 52 0.0 0.0 0.00 0.00 0.00 91 1016.8
20260506100955 52 0.0 0.0 0.00 0.00 0.00 91 1016.9
20260506095953 52 0.0 0.0 0.00 0.00 0.00 91 1016.8
20260506094954 52 0.0 0.0 0.00 0.00 0.00 91 1016.8
20260506093954 52 0.0 0.0 0.00 0.00 0.00 91 1017.0
20260506092955 52 0.0 0.0 0.00 0.00 0.00 91 1017.0
20260506092014 52 349 0.0 2.6 0.00 0.00 0.00 91 1016.9
20260506090952 52 346 0.9 2.6 0.00 0.00 0.00 91 1016.8
20260506085954 52 356 0.9 1.7 0.00 0.00 0.00 91 1016.7
20260506085015 52 342 0.0 1.7 0.00 0.00 0.00 90 1016.8
20260506083953 52 325 0.0 1.7 0.00 0.00 0.00 90 1016.8
20260506082954 52 342 0.0 1.7 0.00 0.00 0.00 90 1016.8
20260506082014 52 350 0.9 2.6 0.00 0.00 0.00 90 1016.8
20260506081014 53 352 0.9 1.7 0.00 0.00 0.00 89 1016.8
20260506072954 53 349 0.0 1.7 0.00 0.00 0.00 88 1016.5
20260506071953 53 352 0.9 1.7 0.00 0.00 0.00 88 1016.6
20260506070954 53 316 0.0 1.7 0.00 0.00 0.00 88 1016.5